Location: Gleizolles
(44.4833°N, 6.7667°E)
Time: 16:02:38
(UTC+00:00)

Altair - Pass Details

Date: 26 June 2024
Orbit: 1502 x 1681 km, 47.2° (Epoch: 13 July)

Event Time Altitude Azimuth Distance (km) Brightness Sun altitude
Rises 03:47:35 0° 280° (W) 4,662 9.6 -1.2°
Reaches altitude 10° 03:50:36 10° 282° (WNW) 3,695 9.1 -0.7°
Maximum altitude 03:59:59 79° 9° (N) 1,593 7.8 0.7°
Drops below altitude 10° 04:09:44 10° 97° (E) 3,829 10.5 2.1°
Sets 04:12:54 0° 99° (E) 4,838 11.0 2.6°
